Regional Weather Roundup
Issued by NWS

Home | Current Version | Previous Version | Graphics & Text | Print | Product List | Glossary On
Versions: 1 2 3 4 5 6 7 8 9 10 11 12 13 14 15 16 17 18 19 20 21 22 23 24 25 26 27 28 29 30 31 32 33 34 35 36 37 38 39 40 41 42 43 44 45 46 47 48 49 50
000
ASUS43 KMKX 240500
RWRWI

WISCONSIN REGIONAL WEATHER ROUNDUP
NATIONAL WEATHER SERVICE MILWAUKEE/SULLIVAN WI
1200 AM CDT MON APR 24 2017

NOTE: "FAIR" INDICATES FEW OR NO CLOUDS BELOW 12,000 FEET WITH NO
SIGNIFICANT WEATHER AND/OR OBSTRUCTIONS TO VISIBILITY.

WIZ001-002-006>008-014>016-023>028-240600-
NORTHWEST WISCONSIN

CITY           SKY/WX    TMP DP  RH WIND       PRES   REMARKS
SUPERIOR ARPT  CLOUDY    35  29  79 NE16G22   30.05F WCI  25
ASHLAND        CLOUDY    35  27  72 NE12      30.06F WCI  27
HAYWARD        CLOUDY    37  29  72 E7G20     29.98F WCI  32
SIREN          CLOUDY    38  31  77 E6        29.96F WCI  33
CUMBERLAND     PTCLDY    39  34  81 E9        29.95F WCI  33
RICE LAKE      PTCLDY    44  36  72 E12       29.97F
CHETEK         PTCLDY    44  37  76 E6        29.96S
LADYSMITH      CLEAR     42  35  74 E12       30.00F
EAU CLAIRE     NOT AVBL
MENOMONIE      CLOUDY    51  40  64 NE6       29.92F
NEW RICHMOND   CLOUDY    46  37  72 NE9       29.92F
OSCEOLA        CLOUDY    44  37  73 E7        29.95F
$$

WIZ003>005-009-010-017-018-240600-
NORTH CENTRAL WISCONSIN

CITY           SKY/WX    TMP DP  RH WIND       PRES   REMARKS
MANITOWISH WTR PTCLDY    33  28  83 E9        30.04F WCI  25
ARBOR VITAE    PTCLDY    37  29  74 SE14      30.04F WCI  28
WOODRUFF       PTCLDY    37  29  74 SE14      30.04F WCI  28
RHINELANDER    PTCLDY    36  29  75 E10       30.06F WCI  28
EAGLE RIVER    PTCLDY    33  24  69 E8        30.06F WCI  26
LAND O LAKES   PTCLDY    33  25  75 SE8       30.09F WCI  25
PHILLIPS       CLOUDY    37  32  82 E7        30.01F WCI  31
TOMAHAWK       CLEAR     38  32  79 SE6       30.06R WCI  33
MEDFORD        CLEAR     40  33  78 E10G16    30.01S WCI  33
MERRILL        CLEAR     38  32  78 E7        30.07R WCI  33
$$

WIZ029-030-035-036-043>047-240600-
CENTRAL WISCONSIN

CITY           SKY/WX    TMP DP  RH WIND       PRES   REMARKS
WAUSAU         CLEAR     37  30  75 E10       30.05F WCI  30
MOSINEE        CLEAR     36  32  87 E12G18    30.06F WCI  27
MARSHFIELD     CLEAR     40  34  79 E17       30.02R WCI  31
STEVENS POINT  CLEAR     37  33  85 E12       30.06F WCI  29
WAUPACA        CLEAR     40  32  73 E7        30.09S WCI  35
WAUTOMA        CLEAR     39  32  76 E10       30.08S WCI  32
WISC RAPIDS    CLEAR     41  35  79 SE16G24   30.05S
CAMP DOUGLAS   NOT AVBL
$$

WIZ011>013-019>022-031-037>040-048>050-240600-
NORTHEAST WISCONSIN

CITY           SKY/WX    TMP DP  RH WIND       PRES   REMARKS
ANTIGO         CLEAR     33  26  74 E13       30.09R WCI  24
SHAWANO        CLEAR     39  30  71 E10G16    30.12S WCI  32
OCONTO         CLEAR     37  27  68 NE6       30.13S WCI  32
STURGEON BAY   PTCLDY    37  27  67 NE13      30.13S WCI  29
GREEN BAY      CLEAR     39  29  67 NE9       30.11S WCI  33
MANITOWOC      NOT AVBL
APPLETON       CLEAR     37  25  60 NE8       30.08S WCI  31
CLINTONVILLE   CLEAR     37  28  70 E9        30.11S WCI  31
OSHKOSH        CLEAR     40  30  67 E12       30.08F WCI  33
$$

WIZ032>034-041-042-053>061-240600-
SOUTHWEST WISCONSIN

CITY           SKY/WX    TMP DP  RH WIND       PRES   REMARKS
LA CROSSE      CLEAR     57  39  51 SE6       29.94S
SPARTA         CLEAR     52  45  76 E8        29.98R
VIROQUA        CLEAR     56  32  39 S8        29.97S
BOSCOBEL       CLEAR     46  41  82 CALM      29.98S
PRAIRIE DU CHI CLEAR     54  35  48 CALM      29.97S
PLATTEVILLE    CLEAR     56  37  49 S9        30.00S
$$

WIZ056-057-062-063-064-067-068-240600-
SOUTH CENTRAL WISCONSIN

CITY           SKY/WX    TMP DP  RH WIND       PRES   REMARKS
REEDSBURG      CLEAR     47  40  77 E8        30.02S
BARABOO/DELLS  CLEAR     44  37  77 E8        30.03S
LONE ROCK      NOT AVBL
MINERAL POINT  CLEAR     55  34  44 S6        30.00S
MADISON        CLEAR     43  36  76 E6        30.03F
MIDDLETON      CLEAR     49  40  72 E6        30.04R
WATERTOWN      CLEAR     38  36  91 E6        30.05F WCI  34
MONROE         CLEAR     50  41  71 E7        30.02S
JANESVILLE     PTCLDY    45  37  76 E6        30.03F
$$

WIZ051-052-058>065-066-070>072-240600-
SOUTHEAST WISCONSIN

CITY           SKY/WX    TMP DP  RH WIND       PRES   REMARKS
MILWAUKEE      PTCLDY    40  34  79 N3        30.07F
WAUKESHA       CLEAR     36  32  87 E6        30.07S WCI  31
MILWAUKEE/TIMM CLEAR     37  32  81 NE3       30.08S
RACINE         CLOUDY    39  34  82 N7        30.08F WCI  34
KENOSHA        CLEAR     39  35  86 N5        30.06F
FOND DU LAC    CLEAR     38  28  67 E6        30.08F WCI  33
SHEBOYGAN      CLEAR     37  32  82 NE10      30.08F WCI  30
WEST BEND      CLEAR     36  32  87 NE3       30.08S
JUNEAU         CLEAR     37  33  84 NE6       30.07S WCI  33
$$

LSZ147-162-240600-
LAKE SUPERIOR

STATION/POSITION TIME  TEMP    WIND        PRES    WAVE
                       AIR SEA DIR/SP/G            HT/PER
                 (UTC) (F)     (DEG/KT/KT) (MB)    (FT/S)
DEVILS ISLAND    0400   36      80/ 16/ 19 1020.9F
SAXON HARBOR     0440   37      70/  5/  7 1017.9F
$$

LMZ867-665-643>646-240600-
LAKE MICHIGAN

STATION/POSITION TIME  TEMP    WIND        PRES    WAVE
                       AIR SEA DIR/SP/G            HT/PER
                 (UTC) (F)     (DEG/KT/KT) (MB)    (FT/S)
CHAMBERS ISLAND  0440   36      20/ 16/ 19 1020.3S
N MID LAKE BUOY  0350   36 37   40/ 16/ 17 1022.1F   2/ 4
NORTHPORT PIER   0440   36      30/  7/ 11 1020.7F
KEWAUNEE LAKESHO 0430   39      50/ 13/ 19 1019.4S
SHEBOYGAN LAKESH 0400   39      10/ 15/ 16 1019.3R
PORT WASHINGTON  0430   40     360/  5/  7 1019.3F
MILWAUKEE LAKESH 0430   40     350/  9/ 11   N/A
S MID LAKE BUOY  0350   40 40  360/  4/  6 1018.3F   3/ 6
KENOSHA   LAKESH 0400   41      10/  8/ 12 1018.3
$$

TC  - TEMPERATURE IN CELSIUS
VSB - VISIBILITY IN STATUTE MILES
WCI - WIND CHILL INDEX
HX  - HEAT INDEX




USA.gov is the U.S. government's official web portal to all federal, state and local government web resources and services.